FAKN

Details ICAO FAKN (MQP)
Name Kruger Mpumalanga Intl
Region South Africa
Timezone Africa/Johannesburg (UTC+2.0)
Plans Departing 27
Arriving 23
Stats Elevation 2,829 ft / 862 m (AMSL)
Location -25.383099° 31.105408°
Runways 1
Magnetic Variation 18.810° W
Sunrise 2018-05-24 04:31:14 UTC / 2018-05-24 06:31:14 Local
Sunset 2018-05-24 15:16:27 UTC / 2018-05-24 17:16:27 Local
Advertisement - Login to hide

Runways

ID Width Length Bearing (true) Bearing (mag) Surface Threshold Offset Overrun Length
05 148 ft / 45 m 8,538 ft / 2,602 m 34.60° 53.41° Asphalt 1,500 ft / 457 m 0 ft / 0 m
23 148 ft / 45 m 8,538 ft / 2,602 m 214.60° 233.41° Asphalt 0 ft / 0 m 0 ft / 0 m

Approach Navaids

Runway Type Ident Frequency Range Bearing (true) Bearing (mag) Slope Elevation
05 Localiser PKI 109.10 MHz 18 nm / 33 km 34.59° 53.40° - 2,828 ft / 862 m (AMSL)
05 Glidescope PKI 109.10 MHz 10 nm / 19 km 34.60° 53.41° 3.00° 2,828 ft / 862 m (AMSL)

Map

Weather


0- 5 10 15 20 25 30 35+ Temperature / ° C

Clouds and Precipitation
Forecast for 2018-05-24 12:00 UTC. Updated an hour ago

Ground ~20,000 ft ~40,000 ft Winds

METAR

FAKN 241200Z 08007KT 9999 FEW030 26/10 Q1019 NOSIG

TAF

Not found

Frequencies

Tower 119.20 MHz TWR
Approach 119.20 MHz APP
Warning: Do not use this data for real-world aviation or navigation. No guarantee of current accuracy is given.